STARLINK-1640, 46173

Orbit data source: Space-Track

STARLINK-1640, 46173 is a payload satellite owned by SpaceX/Seattle (US) in LEO that was launched on Tue, 18 Aug 2020 UTC via an FALCON 9 launch vehicle from the Air Force Eastern Test Range (AFETR). Payload-class satellites include a variety of spacecraft equipped with specific instruments for various scientific and technological missions. These include communications satellites like Starlink; space stations such as the ISS; scientific satellites like the Hubble; Earth observation satellites from companies like Planet Labs, Umbra, and HawkEye 360; GPS; miniature CubeSats for education and research; and military/defense satellites.

Loading next visibility...
Identifier
46173, 2020-057BJ
Orbit
LEO
Country
Flag of USUS
Related business
Manufacturer
SpaceX/Seattle
Mission
Operational Commercial Communications
Bus & Motor
STARLINK, Unknown motor
Mass
260 kg wet, ~248 kg dry
Launch date (UTC)
2020-08-18 (5 years ago)
Launch vehicle
FALCON 9
Launch site
Air Force Eastern Test Range (AFETR)
Object type
Payload
Rocket body
Debris
Shape & HBR
Box + 1 Pan, 10.1 m
Radar Cross Section
13.562 m², Large (>1 m²)

Expand to show TLE details & history
Last TLE update: 16 hours ago

TLE from 16 hours ago
0 STARLINK-1640
1 46173U 20057BJ  25287.20635814  .00000508  00000-0  52951-4 0  9997
2 46173  53.0546 254.2083 0001349  97.6338 262.4805 15.06408620283982
Epoch: 2025-10-14T04:57Z
TLE epoch observation values (Epoch: 2025-10-14T04:57:09.343Z)
Latitude
0.00005°
Longitude
156.9213°
Altitude
548.187 km
Speed
7.589 km/s
True Right ascension
16h 56m 50s
True Declination
0° 00' 00"
Sunlit
Object was in daylight at epoch
Visualization orbit readout
Latitude
Unknown
Longitude
Unknown
Altitude
Unknown
Speed
Unknown
Apparent Right ascension
Unknown
Apparent Declination
Unknown
Sunlit
N/A
Visualization observer readout
Local Sidereal Time
15:27:45
Azimuth
Unknown
Elevation
Unknown
Doppler factor
Unknown
Orbital elements
Apogee altitude
548.39 km
Perigee altitude
546.522 km
Semi-major axis
6,925.593 km
Eccentricity
0.00013
Inclination
53.0546°
RAAN
254.2083°
Arg. of periapsis
97.6338°
True anomaly
262.46517°
Mean anomaly
262.4805°
Eccentric anomaly
262.47284°
Mean motion
3.7658 °/min
Orbital period
95.6 mins
BSTAR
0.000052951
Loading maneuver chart data...
Computing Atmospheric mass density...
Loading historical data...
Loading historical data...
Loading historical data...
Loading historical data...
Loading historical data...
Loading historical data...
Loading historical data...

Documentation

Showing up to 5 results
|